Wetterdaten: aktuell Dienstag, 22.01.2019 06:50
Datum Zeit Temp. A. Feuchte A. Luftdruck Regen Wind Sonnenschein ET UV Solar Taupunkt Windchill Windben
22.01.2019 06:50 -6,7 C 92 % 1015,4 hPa 0,0 l/m 0,0 km/h (0 Bft) 0 min 0,000 mm 0,0 UV-I 0 W/m -7,8 C -6,7 C 1,6 km/h (1 Bft)
22.01.2019 05:50 -7,1 C 91 % 1016,1 hPa 0,0 l/m 3,0 km/h (1 Bft) 0 min 0,000 mm 0,0 UV-I 0 W/m -8,3 C -7,1 C 6,4 km/h (2 Bft)
22.01.2019 04:48 -6,3 C 91 % 1016,8 hPa 0,0 l/m 2,8 km/h (1 Bft) 0 min 0,000 mm 0,0 UV-I 0 W/m -7,5 C -6,3 C 6,4 km/h (2 Bft)
22.01.2019 03:46 -5,7 C 91 % 1017,5 hPa 0,0 l/m 2,1 km/h (1 Bft) 0 min 0,000 mm 0,0 UV-I 0 W/m -6,9 C -5,7 C 4,8 km/h (1 Bft)
22.01.2019 02:44 -5,3 C 91 % 1017,9 hPa 0,0 l/m 2,7 km/h (1 Bft) 0 min 0,000 mm 0,0 UV-I 0 W/m -6,5 C -5,3 C 6,4 km/h (2 Bft)
22.01.2019 01:42 -5,9 C 91 % 1018,5 hPa 0,0 l/m 0,0 km/h (0 Bft) 0 min 0,000 mm 0,0 UV-I 0 W/m -7,1 C -5,9 C 0,0 km/h (0 Bft)
22.01.2019 00:40 -5,3 C 91 % 1019,5 hPa 0,0 l/m 3,9 km/h (1 Bft) 0 min 0,000 mm 0,0 UV-I 0 W/m -6,5 C -5,3 C 8,0 km/h (2 Bft)
21.01.2019 23:38 -4,9 C 91 % 1019,6 hPa 0,0 l/m 2,0 km/h (1 Bft) 0 min 0,000 mm 0,0 UV-I 0 W/m -6,1 C -4,9 C 4,8 km/h (1 Bft)
21.01.2019 22:36 -4,6 C 90 % 1019,9 hPa 0,0 l/m 2,0 km/h (1 Bft) 0 min 0,000 mm 0,0 UV-I 0 W/m -6,0 C -4,6 C 4,8 km/h (1 Bft)
21.01.2019 21:34 -5,2 C 89 % 1020,1 hPa 0,0 l/m 0,2 km/h (0 Bft) 0 min 0,000 mm 0,0 UV-I 0 W/m -6,7 C -5,2 C 1,6 km/h (1 Bft)
21.01.2019 20:32 -3,6 C 88 % 1019,9 hPa 0,0 l/m 0,0 km/h (0 Bft) 0 min 0,000 mm 0,0 UV-I 0 W/m -5,3 C -3,6 C 0,0 km/h (0 Bft)
21.01.2019 19:30 -2,9 C 89 % 1020,2 hPa 0,0 l/m 2,3 km/h (1 Bft) 0 min 0,000 mm 0,0 UV-I 0 W/m -4,5 C -2,9 C 6,4 km/h (2 Bft)
21.01.2019 18:28 -2,4 C 90 % 1020,0 hPa 0,0 l/m 0,0 km/h (0 Bft) 0 min 0,000 mm 0,0 UV-I 0 W/m -3,8 C -2,4 C 1,6 km/h (1 Bft)
21.01.2019 17:26 -2,1 C 90 % 1020,0 hPa 0,0 l/m 0,0 km/h (0 Bft) 0 min 0,000 mm 0,0 UV-I 0 W/m -3,5 C -2,1 C 0,0 km/h (0 Bft)
21.01.2019 16:24 -2,0 C 90 % 1020,1 hPa 0,0 l/m 0,2 km/h (0 Bft) 0 min 0,000 mm 0,0 UV-I 8 W/m -3,4 C -2,0 C 1,6 km/h (1 Bft)
21.01.2019 15:22 -1,9 C 90 % 1020,3 hPa 0,0 l/m 0,1 km/h (0 Bft) 32 min 0,025 mm 0,0 UV-I 33 W/m -3,3 C -1,9 C 1,6 km/h (1 Bft)
21.01.2019 14:20 -1,9 C 89 % 1020,4 hPa 0,0 l/m 1,1 km/h (1 Bft) 60 min 0,026 mm 0,0 UV-I 72 W/m -3,5 C -1,9 C 3,2 km/h (1 Bft)
21.01.2019 13:18 -2,0 C 89 % 1020,8 hPa 0,0 l/m 0,3 km/h (0 Bft) 60 min 0,025 mm 0,0 UV-I 97 W/m -3,6 C -2,0 C 1,6 km/h (1 Bft)
21.01.2019 12:16 -2,4 C 90 % 1021,2 hPa 0,0 l/m 0,0 km/h (0 Bft) 60 min 0,026 mm 0,0 UV-I 126 W/m -3,8 C -2,4 C 1,6 km/h (1 Bft)
21.01.2019 11:14 -2,8 C 91 % 1021,7 hPa 0,0 l/m 2,6 km/h (1 Bft) 60 min 0,025 mm 0,0 UV-I 107 W/m -4,1 C -2,8 C 6,4 km/h (2 Bft)
21.01.2019 10:12 -3,5 C 91 % 1021,6 hPa 0,0 l/m 0,6 km/h (0 Bft) 0 min 0,000 mm 0,0 UV-I 42 W/m -4,8 C -3,5 C 3,2 km/h (1 Bft)
21.01.2019 09:10 -3,9 C 91 % 1021,4 hPa 0,0 l/m 2,1 km/h (1 Bft) 0 min 0,000 mm 0,0 UV-I 22 W/m -5,1 C -3,9 C 4,8 km/h (1 Bft)
21.01.2019 08:08 -3,9 C 91 % 1021,2 hPa 0,0 l/m 3,9 km/h (1 Bft) 0 min 0,000 mm 0,0 UV-I 0 W/m -5,1 C -3,9 C 6,4 km/h (2 Bft)
21.01.2019 07:06 -3,8 C 91 % 1020,7 hPa 0,0 l/m 1,0 km/h (0 Bft) 0 min 0,000 mm 0,0 UV-I 0 W/m -5,0 C -3,8 C 3,2 km/h (1 Bft)
21.01.2019 07:00 -3,8 C 91 % 1020,6 hPa 0,0 l/m 1,0 km/h (0 Bft) 0 min 0,000 mm 0,0 UV-I 0 W/m -5,0 C -3,8 C 3,2 km/h (1 Bft)
_ Min-Zeit 06:00 19:32 06:48 - 07:44 - - - - 06:00 06:00 09:42
Minimum _ -7,4 C 88 % 1015,3 hPa - 0,0 km/h (0 Bft) - - - - -8,6 C -7,4 C 0,0 km/h (0 Bft)
_ Max-Zeit 13:54 06:46 10:42 07:00 03:02 10:16 12:00 07:00 11:50 15:28 13:54 02:40
Maximum _ -1,8 C 92 % 1021,7 hPa 0,0 l/m 7,0 km/h
NW (2 Bft)
2 min 0,026 mm 0,0 UV-I 131 W/m -3,2 C -1,8 C 12,9 km/h
NW (3 Bft)
Durchschnitt _ -3,9 C 90 % 1019,7 hPa #0,0 l/m 1,1 km/h (0 Bft) #0 min. #0,000 mm 0,0 UV-I 0 W/m -5,3 C -3,9 C 3,1 km/h (1 Bft)